STARLINK-4718, 53773

Orbit data source: Space-Track

STARLINK-4718, 53773 is a payload satellite owned by SpaceX/Seattle (US) in LEO that was launched on Sun, 11 Sep 2022 UTC via an FALCON 9 launch vehicle from the Air Force Eastern Test Range (AFETR). Payload-class satellites include a variety of spacecraft equipped with specific instruments for various scientific and technological missions. These include communications satellites like Starlink; space stations such as the ISS; scientific satellites like the Hubble; Earth observation satellites from companies like Planet Labs, Umbra, and HawkEye 360; GPS; miniature CubeSats for education and research; and military/defense satellites.

Loading next visibility...
Identifier
53773, 2022-111A
Orbit
LEO
Last TLE update
19 hours ago
Origin
Manufacturer
SpaceX/Seattle
Mission
Operational Commercial Communications
Bus & Motor
STARLINK, Unknown motor
Mass
305 kg wet, ~290 kg dry
Launch date (UTC)
2022-09-11 (3 years ago)
Launch vehicle
FALCON 9
Launch site
Air Force Eastern Test Range (AFETR)
Object type
Payload
Rocket body
Debris
Shape & HBR
Box + 1 Pan, 8.86 m
Radar Cross Section
13.562 m², Large (>1 m²)

Expand to show TLE details & history

TLE from 19 hours ago
0 STARLINK-4718
1 53773U 22111A   25191.56075659 -.00000321  00000-0 -20851-5 0  9992
2 53773  53.2181 291.0022 0001124  90.5835 269.5286 15.08837019157295
Epoch: 2025-07-10T13:27Z
TLE epoch observation values (Epoch: 2025-07-10T13:27:29.369Z)
Latitude
-0.00002°
Longitude
160.40454°
Altitude
540.657 km
Speed
7.593 km/s
True Right ascension
19h 24m 00s
True Declination
0° 00' 00"
Sunlit
Object was in full shadow at epoch
Visualization orbit readout
Latitude
-43.13543°
Longitude
21.09316°
Altitude
554.867 km
Speed
7.584 km/s
Apparent Right ascension
09h 12m 58s
Apparent Declination
-42° 13' 46"
Sunlit
Object is in daylight
Visualization observer readout
Local Sidereal Time
20:17:18
Azimuth
253.04° W
Elevation
-79.269°
Doppler factor
1
Orbital elements
Apogee altitude
540.775 km
Perigee altitude
539.22 km
Semi-major axis
6,918.134 km
Eccentricity
0.00011
Inclination
53.2181°
RAAN
291.0022°
Arg. of periapsis
90.5835°
True anomaly
Unknown
Mean anomaly
269.5286°
Eccentric anomaly
Unknown
Mean motion
3.7719 °/min
Orbital period
95.44 mins
BSTAR
-0.0000020851
Loading maneuver chart data...
Loading SW <> Apogee altitude chart data...
Loading historical data...
Loading historical data...
Loading historical data...
Loading historical data...
Loading historical data...
Loading historical data...
Loading historical data...

STARLINK-4718 Visibility forecast

Observer location: undefined°, undefined°

Span
Click to sort rows by Start time (UTC) header in descending order
Start Az.
Max El. time (UTC)
Max El. Az.
Max El.
End time (UTC)
End Az.
6 mins2025-07-11 08:41:49.991Z195.015° SSW2025-07-11 08:44:49.991Z125.824° SE31.598°2025-07-11 08:47:49.991Z67.691° E
5 mins2025-07-11 10:21:49.991Z277.823° WNW2025-07-11 10:23:49.991Z323.667° NNW28.568°2025-07-11 10:26:49.991Z28.774° NE
6 mins2025-07-11 15:22:49.991Z331.061° NNW2025-07-11 15:25:49.991Z51.803° ENE31.73°2025-07-11 15:28:49.991Z101.638° ESE
5 mins2025-07-11 17:02:49.991Z270.909° WNW2025-07-11 17:04:49.991Z221.867° SW25.973°2025-07-11 17:07:49.991Z170.34° S
|